Location: Balaclava NSW 2575, Australia
(34.4510°S, 150.4953°E)
Time: 01:13:02
(UTC+10:00)

A-11 Canister half - Pass Details

Date: 22 June 2021
Orbit: 1513 x 1687 km, 47.2° (Epoch: 24 July)

Event Time Altitude Azimuth Distance (km) Brightness Sun altitude
Rises 21:29:29 0° 235° (SW) 4,799 12.1 -55.5°
Reaches altitude 10° 21:32:34 10° 233° (SW) 3,836 11.4 -56.1°
Enters shadow 21:34:57 20° 231° (SW) 3,114 10.8 -56.6°
